Lobo

Go HERE for most recent data if this page is not up to date.

Jump to table bottom
Date/Time Temp deg F RH % 24 Hr Snow (in) Snow Depth (in) H2O (in)
08/18 07:00 57.0 34 "NAN" 1.1 0.00
08/18 06:00 56.0 33 "NAN" 1.3 0.00
08/18 05:00 57.4 32 "NAN" -11.9 0.00
08/18 04:00 57.2 33 "NAN" 1.3 0.00
08/18 03:00 57.8 30 "NAN" 2.7 0.00
08/18 02:00 59.3 27 "NAN" 2.6 0.00
08/18 01:00 59.8 24 "NAN" 1.8 0.00
08/18 00:00 60.0 22 "NAN" 1.9 0.00
08/17 23:00 60.9 22 "NAN" -11.5 0.00
08/17 22:00 61.6 21 "NAN" -10.8 0.00
08/17 21:00 62.4 23 "NAN" -11.9 0.00
08/17 20:00 64.5 23 "NAN" -11.5 0.00
08/17 19:00 67.6 21 "NAN" -11.1 0.00
08/17 18:00 70.1 18 "NAN" -13.7 0.00
08/17 17:00 72.1 15 "NAN" -10.8 0.00
08/17 16:00 73.3 15 "NAN" 5.0 0.00
08/17 15:00 73.0 16 "NAN" -10.8 0.00
08/17 14:00 71.6 18 "NAN" -10.8 0.00
08/17 13:00 69.9 18 "NAN" 4.8 0.00
08/17 12:00 68.9 18 "NAN" 5.1 0.00
08/17 11:00 66.2 18 "NAN" 5.0 0.00
08/17 10:00 64.0 19 "NAN" -11.0 0.00
08/17 09:00 60.8 20 "NAN" 5.2 0.00
08/17 08:00 58.3 22 "NAN" 5.2 0.00
08/17 07:00 56.7 24 "NAN" -116.2 0.00
08/17 06:00 56.7 22 "NAN" -11.9 0.00
08/17 05:00 57.3 23 "NAN" 5.0 0.00
08/17 04:00 58.1 21 "NAN" -116.3 0.00
08/17 03:00 58.5 21 "NAN" -11.0 0.00
08/17 02:00 59.0 20 "NAN" -11.2 0.00
08/17 01:00 60.1 20 "NAN" -11.2 0.00
08/17 00:00 61.2 27 "NAN" -10.6 0.00
.